Starlink 36082

operational
NORAD ID: 66872 Int'l Des: 2025-281 Owner: SPXS Country: US Constellation: starlink
LEOCIRCULAR

About Starlink 36082

Description loading...

Live Position

Loading 3D Globe...

Upcoming Passes

Altitude History

Altitude vs Time

uPlot chart will show altitude changes over time

Two-Line Element Set

1 66872U 25281AA 26047.56236247 .00028393 00000-0 10364-2 0 9992
2 66872 43.0010 102.8468 0001719 265.5044 94.5611 15.27610335 12947
Epoch: Feb 16, 2026 • Age: 11 hours

Current Status

Altitude 494.3 km
Velocity 7.62 km/s
Sub-Earth Point -41.13°S, 158.27°W
Launch Date Dec 2, 2025
Age 0.2 years
Type internet

Technical Details

Classification Payload
Mass 575.00 kg
Dry Mass 530.00 kg
Total Mass 575.00 kg
Length 0.30 m
Diameter 4.10 m
Span 29.00 m
Shape Box + pan
Manufacturer SPXS
Bus Type Starlink V2MO
Phase Status In Orbit
Owner/State SPXS/US

Large Constellations

Loading constellations...